Weather observations for the past three days for
Atqasuk
Metric (Imperial)
Date Time (akdt) Wind (kph) Vis. (km) Weather Sky Cond. Temperature (ºC) Relative Humidity Wind Chill (°C) Heat Index (°C) Pressure Precipitation (cm)
Air Dwpt 6 hour altimeter (cm) sea level (mb) 1 hr 3 hr 6 hr
Max. Min.
16 02:56 S 6 16.09 Fair CLR 9.4 5.6 77% 76.53 1020.5
16 01:56 W 7 16.09 Fair CLR 9.4 5.6 77% 9 76.53 1020.8
16 00:56 SE 19 16.09 Fair CLR 9.4 6.1 80% 7 76.53 1020.6
15 23:56 SE 17 16.09 Fair CLR 11.7 6.7 72% 76.53 1020.7
15 22:56 E 17 16.09 Fair CLR 12.8 7.2 69% 76.53 1020.8
15 21:56 E 13 16.09 Fair CLR 13.9 7.8 15.6 13.3 67% 76.56 1021.1
15 20:56 E 15 16.09 Fair CLR 14.4 7.8 65% 76.56 1020.8
15 19:56 E 17 16.09 Fair CLR 15 7.2 60% 76.58 1021.3
15 18:56 E 15 16.09 Fair CLR 15 7.2 60% 76.63 1021.9
15 17:56 N 6 9.66 Fair with Haze CLR 14.4 6.7 60% 76.61 1021.7
15 16:56 NW 7 16.09 Fair CLR 14.4 6.1 58% 76.66 1022.4
15 15:56 NW 9 16.09 Fair CLR 13.3 6.7 13.3 7.2 65% 76.66 1022.5
15 14:56 NW 7 8.05 Fair with Haze CLR 12.8 6.1 64% 76.68 1022.5
15 13:56 Vrbl 7 16.09 Fair CLR 12.2 6.1 67% 76.68 1022.7
15 12:56 S 11 16.09 Fair CLR 11.1 5 66% 76.68 1022.8
15 11:56 S 9 16.09 Fair CLR 10 4.4 68% 9 76.71 1022.9
15 10:56 SE 9 16.09 Mostly Cloudy BKN045 8.3 3.9 74% 7 76.73 1023.2
15 09:56 SE 13 16.09 Mostly Cloudy BKN041 7.2 3.3 7.2 2.2 77% 5 76.71 1023.1
15 08:56 SE 13 16.09 Fair CLR 6.1 3.3 82% 4 76.73 1023.4
15 07:56 SE 11 16.09 Mostly Cloudy FEW050 BKN070 5 3.3 89% 3 76.76 1023.6
15 06:56 E 6 16.09 Mostly Cloudy BKN065 3.9 2.8 93% 76.76 1023.9
15 05:56 E 7 16.09 Overcast OVC065 3.3 2.2 93% 2 76.76 1023.9
15 04:56 NE 9 16.09 Mostly Cloudy BKN070 2.2 1.1 93% -0 76.78 1024.0
15 03:56 NE 9 16.09 Overcast OVC070 2.2 0.6 6.7 2.2 89% -0 76.78 1024.0
15 02:56 NE 13 16.09 Overcast OVC065 2.8 0.6 86% -0 76.78 1024.1
15 01:56 N 11 16.09 Fair CLR 2.8 1.1 89% 0 76.81 1024.4
15 00:56 N 15 16.09 Fair CLR 2.8 1.1 89% -1 76.78 1024.0
14 23:56 N 13 16.09 Fair CLR 4.4 1.7 83% 2 76.76 1023.9
14 22:56 NE 15 16.09 Fair CLR 6.1 2.8 80% 3 76.78 1024.0
14 21:56 N 17 16.09 Fair CLR 6.7 1.7 8.9 6.1 71% 4 76.76 1023.6
14 20:56 N 19 14.48 Partly Cloudy SCT060 7.2 2.2 71% 4 76.73 1023.6
14 19:56 N 15 16.09 Overcast OVC060 6.7 1.7 71% 4 76.71 1023.3
14 18:56 N 17 16.09 Overcast OVC048 6.1 2.2 76% 3 76.73 1023.4
14 17:56 NW 19 16.09 Overcast OVC046 6.7 2.2 73% 4 76.68 1022.9
14 16:56 NW 13 16.09 Overcast OVC044 6.7 3.3 79% 4 76.68 1022.7
14 15:56 W 9 11.27 Overcast OVC048 8.3 2.2 9.4 6.1 66% 7 76.68 1022.8
14 14:56 W 15 16.09 Overcast OVC046 8.3 2.8 69% 6 76.68 1022.9
14 13:56 W 9 16.09 Partly Cloudy SCT090 9.4 3.3 66% 8 76.63 1022.2
14 12:56 NW 7 16.09 Fair CLR 8.3 2.8 69% 7 76.68 1022.6
14 11:56 W 6 16.09 Mostly Cloudy BKN095 6.7 2.8 76% 76.66 1022.3
14 10:56 NW 7 16.09 Mostly Cloudy BKN090 6.1 2.2 76% 5 76.66 1022.3
14 09:56 SW 9 16.09 A Few Clouds FEW110 6.1 1.7 6.1 1.1 74% 4 76.66 1022.4
14 08:56 SE 7 16.09 Fair CLR 4.4 1.1 79% 3 76.66 1022.2
14 07:56 SE 11 16.09 Fair CLR 2.8 0.6 86% 0 76.66 1022.2
14 06:56 SE 11 16.09 Fair CLR 2.2 0 86% -1 76.63 1022.2
14 05:56 E 13 16.09 Fair CLR 1.7 0 89% -2 76.66 1022.3
14 04:56 E 13 16.09 Fair CLR 1.7 0 89% -2 76.63 1022.1
14 03:56 SE 7 16.09 Fair CLR 1.7 0 9.4 1.7 89% -0 76.66 1022.3
14 02:56 E 17 16.09 Fair CLR 1.7 0 89% -2 76.63 1022.1
14 01:56 E 15 16.09 Fair CLR 2.8 1.1 89% -1 76.63 1021.9
14 00:56 E 13 16.09 Fair CLR 4.4 1.7 83% 2 76.61 1021.7
13 23:56 E 17 16.09 Fair CLR 6.1 2.8 80% 3 76.58 1021.5
13 22:56 E 15 16.09 Fair CLR 7.8 3.3 73% 6 76.58 1021.2
13 21:56 E 17 16.09 Fair CLR 9.4 3.3 11.7 9.4 66% 7 76.58 1021.3
13 20:56 E 20 16.09 Fair CLR 10 3.3 63% 8 76.53 1020.5
13 19:56 E 19 16.09 Fair CLR 11.1 3.9 61% 76.53 1020.6
13 18:56 E 22 16.09 Fair CLR 11.1 3.9 61% 76.56 1020.9
13 17:56 E 24 16.09 Fair CLR 11.1 3.9 61% 76.56 1021.0
13 16:56 E 19 16.09 Fair CLR 11.1 3.9 61% 76.56 1021.1
13 15:56 E 20 16.09 Fair CLR 11.1 3.3 11.1 5 59% 76.56 1021.0
13 14:56 E 22 16.09 Fair CLR 10.6 3.3 61% 76.53 1020.8
13 13:56 E 22 16.09 Fair CLR 10 2.8 61% 7 76.53 1020.6
13 12:56 E 20 16.09 Fair CLR 9.4 2.2 61% 7 76.53 1020.8
13 11:56 E 20 16.09 Fair CLR 7.8 2.2 68% 5 76.5 1020.5
13 10:56 E 22 16.09 Fair CLR 6.7 1.1 68% 3 76.53 1020.6
13 09:56 E 20 16.09 Fair CLR 5 1.1 5 1.1 76% 1 76.5 1020.4
13 08:56 E 17 16.09 Fair CLR 3.9 1.1 82% 0 76.48 1020.2
13 07:56 E 24 16.09 Fair CLR 2.8 0.6 86% -2 76.45 1019.8
13 06:56 E 24 16.09 Fair CLR 2.2 0 86% -3 76.43 1019.5
13 05:56 E 24 16.09 Fair CLR 1.1 0 92% -4 76.43 1019.2
13 04:56 E 22 16.09 Fair CLR 1.1 0 92% -4 76.43 1019.3
13 03:56 E 19 16.09 Fair CLR 1.1 0 5.6 1.1 92% -3 76.43 1019.2
Date Time (akdt) Wind (kph) Vis. (km) Weather Sky Cond. Air Dwpt Max. Min. Relative Humidity Wind Chill (°C) Heat Index (°C) altimeter (cm) sea level (mb) 1 hr 3 hr 6 hr
6 hour
Temperature (ºC) Pressure Precipitation (cm)